Tracking 29967 objects as of 6-Dec-2024
HD Live streaming from Space Station
objects crossing your sky now

SL-8 DEB

Track SL-8 DEB now!
10-day predictions


NORAD ID: 29286
Int'l Code: 1981-120Q
Perigee: 1,659.2 km
Apogee: 1,663.2 km
Inclination: 83.0 °
Period: 119.4 minutes
Semi major axis: 8032 km
RCS: 0.0083 m2 (small)
Launch date: December 17, 1981
Source: Commonwealth of Independent States (former USSR) (CIS)
Launch site: PLESETSK MISSILE AND SPACE COMPLEX (PKMTR)

Note: This is SATELLITE DEBRIS
Your satellite tracking list
Your tracking list is empty




NASA's NSSDC Master Catalog

Two Line Element Set (TLE):
1 29286U 81120Q   24339.61686532  .00000013  00000-0  37706-4 0  9998
2 29286  82.9838  31.4981 0002507 161.0101 354.9377 12.06016550520154
Source of the keplerian elements: AFSPC